Domov               UVHVVR             MKGP            O straneh              
ZDRAVSTVENO VARSTVO RASTLIN
  MREŽA AGROMET. POSTAJ
 ► PROGNOSTIČNA OBVESTILA
AGROMETEOROLOŠKI PODATKI -
ARSO
OBVLADOVANJE TVEGANJ ZARADI
NEUGODNIH VREMENSKIH RAZMER
  ► NARAVNE NESREČE
  ► SUŠA/MOČA
  ► NAMAKANJE
  ► ŽLED (gozdarstvo)
KARTOGRAFSKI PRIKAZI
SPLETNE POVEZAVE
PROJEKTI IN PUBLIKACIJE

AGROMETEOROLOŠKA MREŽA: VREMENSKE POSTAJE IN FENOLOŠKA OPAZOVANJA

Pregled podatkov za lokacijo Otočec, meteorološka postaja 37169

Pregled senzorjev na lokaciji

ID Ime Zadnja
vrednost
Datum
zadnje
spremembe
Tip
senzorja
3924 Relativna vlaga 2 m (% RH) 97,97 % RH 21.8.2017 02:15 50YA
3925 Temperatura 2 m ( °C) 11,99 °C 21.8.2017 02:15 50YA
3926 Omočenost lista (U) 1 U 21.8.2017 02:15 A730WET
3927 Padavine 0.2 mm (mm) 0 mm 21.8.2017 02:15 Rain-O-Matic

Pregled podatkov zadnjih 24 ur

Zap.
št.
Datum in čas Otočec
Omočenost
lista
Padavine
0.2
mm
Relativna
vlaga
2
m
Temperatura
2
m
0 21.8.2017 01:30 1 0 97,97 11,99
1 21.8.2017 01:00 1 0 98,4 12,14
2 21.8.2017 00:30 1 0 98,25 12,04
3 21.8.2017 00:00 1 0 97,29 12,53
4 20.8.2017 23:30 0,5 0 96,96 12,77
5 20.8.2017 23:00 0 0 94,92 13,31
6 20.8.2017 22:30 0 0 90,99 13,98
7 20.8.2017 22:00 0 0 93,33 14,16
8 20.8.2017 21:30 0 0 90,61 14,7
9 20.8.2017 21:00 0 0 86,11 15,75
10 20.8.2017 20:30 0 0 84,21 16,24
11 20.8.2017 20:00 0 0 78,85 16,74
12 20.8.2017 19:30 0 0 78,55 17,26
13 20.8.2017 19:00 0 0 73,28 18,6
14 20.8.2017 18:30 0 0 64,26 19,99
15 20.8.2017 18:00 0 0 64,38 20,7
16 20.8.2017 17:30 0 0 60,24 21,6
17 20.8.2017 17:00 0 0 56,67 22,33
18 20.8.2017 16:30 0 0 55,7 22,75
19 20.8.2017 16:00 0 0 53,91 23,38
20 20.8.2017 15:30 0 0 53,39 24
21 20.8.2017 15:00 0 0 55,01 23,32
22 20.8.2017 14:30 0 0 56,26 23,43
23 20.8.2017 14:00 0 0 59,91 22,64
24 20.8.2017 13:30 0 0 63,2 21,77
25 20.8.2017 13:00 0 0 66,01 21,37
26 20.8.2017 12:30 0 0 69,82 20,06
27 20.8.2017 12:00 0 0 74,38 19,79
28 20.8.2017 11:30 0 0 77,85 19,15
29 20.8.2017 11:00 0,5 0 80,29 18,38
30 20.8.2017 10:30 2,5 0 81,72 18,14
31 20.8.2017 10:00 10 0 86,3 17,85
32 20.8.2017 09:30 10 0 86,72 17,77
33 20.8.2017 09:00 10 0 89,26 17,39
34 20.8.2017 08:30 10 0 90,43 17,07
35 20.8.2017 08:00 10 0 94,11 16,62
36 20.8.2017 07:30 10 0 97,66 15,87
37 20.8.2017 07:00 10 0 99,91 15,4
38 20.8.2017 06:30 10 0 99,93 14,73
39 20.8.2017 06:00 10 0 99,93 14,32
40 20.8.2017 05:30 10 0 99,93 14,49
41 20.8.2017 05:00 10 0 99,91 14,55
42 20.8.2017 04:30 10 0,2 99,93 14,52
43 20.8.2017 04:00 10 0 99,93 14,77
44 20.8.2017 03:30 10 0,8 99,93 14,95
45 20.8.2017 03:00 10 0,2 99,93 15,05
© 2011 Ministrstvo za kmetijstvo, gozdarstvo in prehrano. Vse pravice pridržane.